Location: Lane
(33.5226°N, 79.8788°W)
Time: 21:06:30
(UTC+00:00)

Vanguard 2 Rocket - Pass Details

Date: 04 October 2022
Orbit: 555 x 3321 km, 32.9° (Epoch: 28 November)

Event Time Altitude Azimuth Distance (km) Brightness Sun altitude
Rises 00:25:32 0° 208° (SSW) 7,280 11.8 -18.4°
Reaches altitude 10° 00:31:33 10° 198° (SSW) 6,256 11.3 -19.6°
Maximum altitude 00:47:05 30° 147° (SSE) 4,253 9.9 -22.8°
Enters shadow 00:51:18 27° 124° (SE) 4,167 9.7 -23.7°
